Regional Weather Roundup
Issued by NWS

Home | Current Version | Previous Version | Graphics & Text | Print | Product List | Glossary Off
Versions: 1 2 3 4 5 6 7 8 9 10 11 12 13 14 15 16 17 18 19 20 21 22 23 24 25 26 27 28 29 30 31 32 33 34 35 36 37 38 39 40 41 42 43 44 45 46 47 48 49

000
ASUS43 KDMX 300807
RWRIA

WEATHER ROUNDUP FOR IOWA
NATIONAL WEATHER SERVICE DES MOINES IA
300 AM CDT TUE SEP 30 2014

NOTE: "FAIR" INDICATES FEW OR NO CLOUDS BELOW 12,000 FEET WITH NO
SIGNIFICANT WEATHER AND/OR OBSTRUCTIONS TO VISIBILITY.

* - THESE STATIONS ARE NOT NWS STATIONS...THUS NOT UNDER NWS
QUALITY CONTROL.  THEY ALSO DO NOT REPORT WEATHER SUCH
AS PRECIPITATION OR FOG.

IAZ001>003-012>014-020>022-031>034-043>046-300900-
   NORTHWEST IOWA

CITY           SKY/WX    TMP DP  RH WIND       PRES   REMARKS
CARROLL *      MOCLDY    55  54  94 E6        29.99F
CHEROKEE *       N/A     54  52  94 E6        29.99F
DENISON *      PTCLDY    57  57 100 E7        29.96F
LE MARS *        N/A     57  54  88 E7        29.97F
ORANGE CITY *  CLEAR     55  50  82 E9        29.97F
SHELDON *      CLOUDY    52  50  93 E12       29.98F
SIOUX CITY     PTCLDY    59  56  89 E7        29.94F
SPENCER        MOCLDY    52  48  86 E13       30.01F
STORM LAKE *   CLEAR     52  50  93 E10       30.00F
$$

IAZ055>058-069>071-079>083-090>094-300900-
   SOUTHWEST IOWA

CITY           SKY/WX    TMP DP  RH WIND       PRES   REMARKS
ATLANTIC *     CLEAR     61  59  94 E5        29.97S
AUDUBON *      PTCLDY    57  54  88 CALM      30.00S HAZE
CLARINDA *     PTCLDY    55  55 100 N3        29.97F
COUNCIL BLFS *   N/A     63  63 100 E9        29.93F
CRESTON *      PTCLDY    61  61 100 E7        29.99S FOG
HARLAN  *      CLEAR     61  61 100 CALM      30.00F FOG
LAMONI         PTCLDY    60  58  92 E5        29.98S
RED OAK *      PTCLDY    61  59  94 NE5       29.96F FOG
SHENANDOAH *   CLOUDY    63  57  82 CALM      29.94F
$$

IAZ047>049-059>061-072>074-084-300900-
   CENTRAL IOWA

CITY           SKY/WX    TMP DP  RH WIND       PRES   REMARKS
AMES           CLOUDY    55  52  89 E9        30.01F
ANKENY *       MOCLDY    57  55  94 NE3       30.00F
CHARITON *     PTCLDY    59  59 100 NE5       29.99S FOG
DES MOINES     PTCLDY    60  56  86 E7        30.00S
GRINNELL*      CLOUDY    55  54  94 NE10      30.02S
KNOXVILLE *    PTCLDY    59  57  94 NE7       29.98F
MARSHALLTOWN   CLOUDY    55  52  89 E8        30.02S
PELLA *        CLEAR     57  55  94 NE3       30.01S
PERRY *        MOCLDY    57  55  94 NE5       30.00F
$$

IAZ004>006-015-016-023>025-035-036-300900-
   NORTH CENTRAL IOWA

CITY           SKY/WX    TMP DP  RH WIND       PRES   REMARKS
ALGONA *       CLOUDY    50  50 100 E6        30.03F
CLARION *      CLEAR     52  50  93 E7G13     30.02F
ESTHERVILLE    PTCLDY    48  48 100 E6        30.03F
FORT DODGE *   CLEAR     52  48  87 E7        30.02F
MASON CITY     CLEAR     47  46  97 NE6       30.06F
FOREST CITY *  CLEAR     50  48  93 E5        30.04F
IOWA FALLS *   MOCLDY    52  50  93 E7        30.04S
$$

IAZ007>011-017>019-026>030-037>042-050>054-066-300900-
   NORTHEAST IOWA

CITY           SKY/WX    TMP DP  RH WIND       PRES   REMARKS
CHARLES CITY * PTCLDY    50  48  93 E7        30.06S
CLINTON *      CLOUDY    54  48  82 NE10      30.06S
DECORAH *      CLOUDY    48  46  93 E7        30.07R
MONTICELLO *   MOCLDY    54  50  87 E7        30.04S
OELWEIN *      MOCLDY    52  48  87 E7        30.05F
WATERLOO       CLEAR     52  47  83 E9        30.04S
$$

IAZ064-065-067-068-078-300900-
   EAST CENTRAL IOWA

CITY           SKY/WX    TMP DP  RH WIND       PRES   REMARKS
IOWA CITY      CLOUDY    57  54  89 NE12      30.03R
MT. PLEASANT * PTCLDY    61  59  94 N7        29.99S FOG
MUSCATINE *    CLOUDY    59  54  82 NE10      30.01S
$$

IAZ062-063-075>077-085>089-095>099-300900-
   SOUTHEAST IOWA

CITY           SKY/WX    TMP DP  RH WIND       PRES   REMARKS
BURLINGTON     CLEAR     62  59  90 NE12      29.98R
FAIRFIELD *    CLEAR     59  57  94 NE8       29.99S
FORT MADISON * CLEAR     63  61  94 NE7       29.98S
KEOKUK *       CLEAR     63  59  88 N5        29.96S
OSKALOOSA *      N/A     59  57  94 NE7       30.00S
CENTERVILLE *  CLEAR     59  59 100 NE3       30.00S
OTTUMWA        CLEAR     60  58  92 NE9       29.99S
WASHINGTON *   CLOUDY    61  57  88 NE12G18   30.00S
$$

ABBREVIATIONS USED IN REMARKS
   TC - TEMPERATURES IN CELSIUS
  WCI - WIND CHILL INDEX
   HX - HEAT INDEX
  VSB - VISIBILITY
$$



USA.gov is the U.S. government's official web portal to all federal, state and local government web resources and services.